STARLINK-32537, 61923

Orbit data source: Space-Track

STARLINK-32537, 61923 is a payload satellite owned by SpaceX/Seattle (US) in LEO that was launched on Mon, 11 Nov 2024 UTC via an FALCON 9 launch vehicle from the Air Force Eastern Test Range (AFETR). Payload-class satellites include a variety of spacecraft equipped with specific instruments for various scientific and technological missions. These include communications satellites like Starlink; space stations such as the ISS; scientific satellites like the Hubble; Earth observation satellites from companies like Planet Labs, Umbra, and HawkEye 360; GPS; miniature CubeSats for education and research; and military/defense satellites.

Loading next visibility...
Identifier
61923, 2024-207M
Orbit
LEO
Country
Flag of USUS
Related business
Manufacturer
SpaceX/Seattle
Mission
Operational Commercial Communications
Bus & Motor
STARLINK V2M, Unknown motor
Mass
730 kg wet, ~700 kg dry
Launch date (UTC)
2024-11-11 (2 years ago)
Launch vehicle
FALCON 9
Launch site
Air Force Eastern Test Range (AFETR)
Object type
Payload
Rocket body
Debris
Shape & HBR
Box + 2 Pan, 17.7 m
Radar Cross Section
33.884 m², Large (>1 m²)

Expand to show TLE details & history
Last TLE update: 1 day ago

TLE from 1 day ago
0 STARLINK-32537
1 61923U 24207M   26206.37283260  .00013931  00000-0  51459-3 0  9997
2 61923  43.0044 228.0950 0002783 282.5371  77.5169 15.27593220 95737
Epoch: 2026-07-25T08:56Z
TLE epoch observation values (Epoch: 2026-07-25T08:56:52.736Z)
Latitude
-0.00005°
Longitude
150.78916°
Altitude
482.373 km
Speed
7.626 km/s
True Right ascension
15h 12m 22s
True Declination
0° 00' 00"
Sunlit
Object was in daylight at epoch
Visualization orbit readout
Latitude
Unknown
Longitude
Unknown
Altitude
Unknown
Speed
Unknown
Apparent Right ascension
Unknown
Apparent Declination
Unknown
Sunlit
N/A
Visualization observer readout
Local Sidereal Time
22:17:19
Azimuth
Unknown
Elevation
Unknown
Doppler factor
Unknown
Orbital elements
Apogee altitude
486.864 km
Perigee altitude
483.044 km
Semi-major axis
6,863.091 km
Eccentricity
0.00028
Inclination
43.0044°
RAAN
228.095°
Arg. of periapsis
282.5371°
True anomaly
77.54804°
Mean anomaly
77.5169°
Eccentric anomaly
77.53247°
Mean motion
3.81736 °/min
Orbital period
94.31 mins
BSTAR
0.00051459
Loading maneuver chart data...
Computing Atmospheric mass density...
Loading historical data...
Loading historical data...
Loading historical data...
Loading historical data...
Loading historical data...
Loading historical data...
Loading historical data...

Documentation

Showing up to 5 results
|